STARLINK-1208, 45205

Orbit data source: Space-Track

STARLINK-1208, 45205 is a payload satellite owned by SpaceX/Seattle (US) in LEO that was launched on Mon, 17 Feb 2020 UTC via an FALCON 9 launch vehicle from the Air Force Eastern Test Range (AFETR). Payload-class satellites include a variety of spacecraft equipped with specific instruments for various scientific and technological missions. These include communications satellites like Starlink; space stations such as the ISS; scientific satellites like the Hubble; Earth observation satellites from companies like Planet Labs, Umbra, and HawkEye 360; GPS; miniature CubeSats for education and research; and military/defense satellites.

Loading next visibility...
Identifier
45205, 2020-012AD
Orbit
LEO
Country
Flag of USUS
Related business
Manufacturer
SpaceX/Seattle
Mission
Partially operational Commercial Communications
Bus & Motor
STARLINK, Unknown motor
Mass
260 kg wet, ~248 kg dry
Launch date (UTC)
2020-02-17 (6 years ago)
Launch vehicle
FALCON 9
Launch site
Air Force Eastern Test Range (AFETR)
Object type
Payload
Rocket body
Debris
Shape & HBR
Box + 1 Pan, 4.4 m
Radar Cross Section
13.562 m², Large (>1 m²)

Expand to show TLE details & history
Last TLE update: 18 hours ago

TLE from 18 hours ago
0 STARLINK-1208
1 45205U 20012AD  25257.58335648  .00287063  42460-4  81621-3 0  9991
2 45205  53.0389  47.2695 0002307 104.5664 294.5751 15.92872673  5904
Epoch: 2025-09-14T14:00Z
TLE epoch observation values (Epoch: 2025-09-14T14:00:01.999Z)
Latitude
30.37054°
Longitude
-130.533°
Altitude
295.356 km
Speed
7.735 km/s
True Right ascension
04h 53m 06s
True Declination
30° 12' 37"
Sunlit
Object was in daylight at epoch
Visualization orbit readout
Latitude
Unknown
Longitude
Unknown
Altitude
Unknown
Speed
Unknown
Apparent Right ascension
Unknown
Apparent Declination
Unknown
Sunlit
N/A
Visualization observer readout
Local Sidereal Time
00:50:49
Azimuth
Unknown
Elevation
Unknown
Doppler factor
Unknown
Orbital elements
Apogee altitude
296.071 km
Perigee altitude
292.992 km
Semi-major axis
6,672.669 km
Eccentricity
0.00023
Inclination
53.0389°
RAAN
47.2695°
Arg. of periapsis
104.5664°
True anomaly
294.55106°
Mean anomaly
294.5751°
Eccentric anomaly
294.56308°
Mean motion
3.98193 °/min
Orbital period
90.41 mins
BSTAR
0.00081621
Loading maneuver chart data...
Computing Atmospheric mass density...

Documentation

Showing up to 5 results
|